This demonstration page uses our WeatherBlox Daily Observations layout. Learn more.

Left ArrowRight Arrow

38.80484, -77.04692

Hourly Observations for December 1, 2020

Temp ( °F °C ) Dew Point ( °F °C ) Humidity (%) Winds ( mph kmh ) Pressure ( in mb ) Visibility ( mi km ) Precip ( " mm )
12:52 am 00:52 Cloudy 49 9.4 36 2.2 61 61 NW 9 15 29.53 1000 10 16 N/A
1:52 am 01:52 Mostly Cloudy 48 8.9 36 2.2 63 63 N 6 9 29.54 1000 10 16 N/A
2:52 am 02:52 Mostly Cloudy 47 8.3 35 1.7 63 63 N 5 7 29.55 1001 10 16 N/A
3:52 am 03:52 Mostly Cloudy 47 8.3 34 1.1 61 61 NW 3 6 29.55 1001 10 16 N/A
4:52 am 04:52 Cloudy with Light Rain 47 8.3 34 1.1 61 61 WNW 6 9 29.56 1001 10 16 0.00 0.00
5:52 am 05:52 Cloudy with Light Rain 44 6.7 35 1.7 71 71 W 12 19 29.59 1002 10 16 0.01 0.25
6:52 am 06:52 Cloudy with Drizzle 42 5.6 34 1.1 73 73 W 13 20 29.62 1003 10 16 0.00 0.00
7:52 am 07:52 Cloudy 41 5 34 1.1 76 76 W 9 15 29.66 1004 10 16 0.00 0.00
8:52 am 08:52 Cloudy 40 4.4 34 1.1 79 79 SW 6 9 29.67 1005 10 16 0.01 0.25
9:52 am 09:52 Mostly Cloudy 43 6.1 34 1.1 71 71 SW 10 17 29.69 1005 10 16 N/A
10:52 am 10:52 Partly Cloudy 47 8.3 28 -2.2 48 48 W 17 28 29.70 1006 10 16 N/A
11:52 am 11:52 Mostly Cloudy 47 8.3 27 -2.8 46 46 WNW 17 28 29.70 1006 10 16 N/A
12:52 pm 12:52 Mostly Cloudy 46 7.8 25 -3.9 44 44 W 17 28 29.72 1006 10 16 N/A
1:52 pm 13:52 Mostly Cloudy 46 7.8 24 -4.4 42 42 W 16 26 29.74 1007 10 16 N/A
2:52 pm 14:52 Mostly Cloudy 45 7.2 22 -5.6 40 40 W 18 30 29.76 1008 10 16 N/A
3:52 pm 15:52 Cloudy 45 7.2 23 -5 42 42 W 8 13 29.78 1009 10 16 N/A
4:52 pm 16:52 Cloudy 45 7.2 23 -5 42 42 WSW 18 30 29.81 1009 10 16 N/A
5:52 pm 17:52 Cloudy 44 6.7 24 -4.4 45 45 W 8 13 29.84 1011 10 16 N/A
6:52 pm 18:52 Cloudy 43 6.1 23 -5 45 45 WSW 16 26 29.88 1012 10 16 N/A
7:52 pm 19:52 Mostly Cloudy 42 5.6 21 -6.1 43 43 W 9 15 29.90 1013 10 16 N/A
8:52 pm 20:52 Cloudy 42 5.6 21 -6.1 43 43 W 9 15 29.91 1013 10 16 N/A
9:52 pm 21:52 Cloudy 41 5 21 -6.1 45 45 WNW 8 13 29.93 1013 10 16 N/A
10:52 pm 22:52 Cloudy 41 5 21 -6.1 45 45 W 10 17 29.94 1014 10 16 N/A
11:52 pm 23:52 Cloudy 41 5 21 -6.1 45 45 WSW 8 13 29.95 1014 10 16 N/A

Powered by AerisWeather